Theta_e
324 324 324 324 323 322 322 322 323 322 323 323 324 324 324 323 322 321 320 319 320 320
323 322 322 323 322 322 323 321 322 322 322 322 322 322 323 322 321 321 321 320 319 319
321 321 322 321 320 321 321 321 320 320 321 321 321 321 321 321 322 321 321 320 319 319
318 319 320 319 320 320 320 319 319 320 320 320 320 321 320 320 321 319 319 318 318 318
315 316 317 318 318 318 319 319 320 320 319 320 320 321 319 319 317 316 315 314 312 312
310 312 314 315 315 316 317 318 317 318 317 317 316 315 313 313 312 312 312 310 310 309
304 305 305 304 307 308 309 308 307 306 306 306 306 306 304 306 307 306 305 303 303 302
297 298 299 301 302 302 301 302 302 302 302 301 299 296 299 300 302 302 300 295 294 293
296 295 294 295 295 295 296 297 297 296 295 295 293 296 296 298 299 297 294 291 290 292
293 291 291 291 291 291 291 291 292 294 293 292 293 295 294 293 295 293 293 290 289 289
290 290 290 290 290 291 292 291 290 290 290 290 291 293 292 291 290 290 289 290 290 290
290 289 289 288 290 290 289 288 287 287 288 288 288 292 292 290 288 288 287 288 289 289
289 289 289 288 288 286 287 286 287 286 287 286 287 291 291 289 287 286 285 286 286 286
288 289 288 287 287 287 286 286 286 286 286 287 287 289 291 290 287 286 285 285 285 286
Wind_Speed
18 12 12 12 10 9 9 9 9 10 11 12 10 9 9 8 8 8 9 13 11 8
14 14 13 13 11 9 8 7 9 10 10 10 10 10 10 8 9 10 10 10 10 9
13 12 11 8 10 10 9 8 8 9 9 9 9 10 10 8 9 9 8 8 9 9
10 10 9 9 9 9 7 8 8 9 9 9 8 8 9 9 9 9 8 6 8 10
8 8 8 8 6 6 8 6 8 7 7 7 8 8 8 8 6 6 5 4 2 5
7 7 7 6 5 5 5 5 5 5 6 5 3 3 2 5 4 4 4 3 5 4
7 6 6 6 6 5 5 5 5 5 5 5 5 4 4 4 4 3 4 3 4 5
6 7 7 7 6 6 6 5 5 5 5 5 6 3 5 5 4 4 6 6 6 5
8 7 7 7 6 6 6 5 5 5 5 6 4 7 7 5 5 5 6 6 4 3
9 9 8 8 7 7 6 5 6 5 5 5 4 7 7 6 4 5 4 5 5 4
8 8 7 7 7 7 5 6 5 5 5 5 4 8 9 9 7 7 6 5 5 5
9 9 8 9 8 6 7 5 3 3 5 7 6 9 11 9 7 7 7 5 5 4
9 10 9 8 7 3 4 6 5 5 5 5 7 10 10 8 5 7 5 5 5 9
8 10 10 8 6 7 7 7 5 8 6 7 6 9 12 11 5 4 5 5 4 3
Wind_Direction
207 208 212 209 203 208 205 208 198 201 211 217 217 217 214 223 226 222 229 239 235 238
206 207 209 208 200 203 205 201 194 196 206 212 213 212 214 222 224 216 226 234 236 235
202 205 206 186 192 199 205 198 187 196 205 210 212 212 210 222 228 223 227 229 230 233
190 189 185 190 200 201 194 186 194 199 207 213 216 213 210 218 224 218 229 219 228 240
175 173 182 193 184 177 199 190 201 202 204 206 213 217 209 223 212 222 211 227 247 258
156 157 165 164 158 164 174 177 184 193 199 209 204 203 144 152 162 189 179 174 219 223
155 152 138 127 125 119 108 105 98 88 97 101 101 90 81 77 83 68 52 46 36 26
124 116 119 117 111 101 93 94 94 104 92 82 81 71 98 92 101 120 91 61 51 45
117 112 114 118 117 105 98 91 93 86 94 93 84 85 93 124 122 102 117 120 97 87
133 130 128 124 118 112 114 116 103 99 102 95 90 90 99 110 106 103 106 110 119 92
133 125 123 118 118 119 114 109 104 103 115 105 87 102 107 107 107 97 87 101 122 123
142 137 135 129 130 116 115 111 106 117 135 113 89 95 104 103 96 100 94 80 66 86
143 137 136 130 120 93 93 107 103 101 82 82 93 87 92 90 89 91 93 78 74 74
140 138 132 120 118 118 118 108 115 104 86 78 74 71 76 86 88 116 116 94 81 71